TimeCDT,TemperatureF,Dew PointF,Humidity,Sea Level PressureIn,VisibilityMPH,Wind Direction,Wind SpeedMPH,Gust SpeedMPH,PrecipitationIn,Events,Conditions,WindDirDegrees,DateUTC
12:53 AM,45.0,39.9,82,29.97,8.0,Variable,4.6,-,N/A,,Overcast,0,2013-05-11 05:53:00
1:32 AM,44.6,41.0,87,29.95,6.0,WSW,3.5,-,N/A,,Overcast,250,2013-05-11 06:32:00
1:53 AM,45.0,41.0,86,29.96,4.0,West,3.5,-,N/A,,Overcast,260,2013-05-11 06:53:00
2:41 AM,42.8,39.2,87,29.93,2.0,SW,4.6,-,N/A,,Overcast,220,2013-05-11 07:41:00
2:53 AM,44.1,39.9,85,29.94,0.8,SSW,5.8,-,N/A,,Overcast,200,2013-05-11 07:53:00
3:53 AM,44.1,41.0,89,29.94,0.2,South,3.5,-,N/A,Fog,Fog,190,2013-05-11 08:53:00
4:07 AM,44.6,41.0,87,29.93,2.0,South,5.8,-,N/A,,Overcast,190,2013-05-11 09:07:00
4:19 AM,44.6,42.8,93,29.92,1.2,South,5.8,-,N/A,,Overcast,190,2013-05-11 09:19:00
4:53 AM,46.0,42.1,86,29.93,1.5,SSW,8.1,-,N/A,,Overcast,200,2013-05-11 09:53:00
5:03 AM,46.4,42.8,87,29.91,2.5,SSW,5.8,-,N/A,,Overcast,200,2013-05-11 10:03:00
5:13 AM,46.4,42.8,87,29.91,3.0,SSW,8.1,-,N/A,,Overcast,210,2013-05-11 10:13:00
5:24 AM,46.4,42.8,87,29.91,2.0,SSW,9.2,-,N/A,,Overcast,210,2013-05-11 10:24:00
5:33 AM,46.4,42.8,87,29.91,1.5,SSW,9.2,-,N/A,,Overcast,200,2013-05-11 10:33:00
5:43 AM,46.4,42.8,87,29.90,0.5,SSW,8.1,-,N/A,Fog,Fog,200,2013-05-11 10:43:00
5:53 AM,46.0,43.0,89,29.91,0.5,SSW,9.2,-,N/A,Fog,Fog,210,2013-05-11 10:53:00
6:11 AM,46.4,42.8,87,29.90,1.2,SSW,5.8,-,N/A,,Overcast,200,2013-05-11 11:11:00
6:26 AM,46.4,42.8,87,29.89,2.5,SSW,6.9,-,N/A,,Mostly Cloudy,210,2013-05-11 11:26:00
6:41 AM,46.4,42.8,87,29.89,2.5,SSW,6.9,-,N/A,,Scattered Clouds,200,2013-05-11 11:41:00
6:50 AM,46.4,42.8,87,29.89,3.0,SW,6.9,-,N/A,,Partly Cloudy,220,2013-05-11 11:50:00
6:53 AM,46.9,43.0,86,29.90,3.0,SW,8.1,-,N/A,,Partly Cloudy,220,2013-05-11 11:53:00
7:53 AM,50.0,45.0,83,29.87,7.0,WSW,11.5,-,N/A,,Mostly Cloudy,240,2013-05-11 12:53:00
8:53 AM,53.1,46.0,77,29.83,9.0,SW,12.7,-,N/A,,Overcast,220,2013-05-11 13:53:00
9:30 AM,57.2,48.2,72,29.81,10.0,SW,11.5,20.7,N/A,,Mostly Cloudy,220,2013-05-11 14:30:00
9:53 AM,57.0,48.0,72,29.81,10.0,SW,12.7,25.3,N/A,,Overcast,230,2013-05-11 14:53:00
10:53 AM,55.9,46.9,72,29.81,9.0,West,12.7,23.0,N/A,,Overcast,260,2013-05-11 15:53:00
11:42 AM,53.6,39.2,58,29.83,10.0,NW,24.2,38.0,0.00,,Overcast,320,2013-05-11 16:42:00
11:53 AM,52.0,39.0,61,29.86,10.0,WNW,21.9,35.7,0.00,,Overcast,300,2013-05-11 16:53:00
12:49 PM,53.6,37.4,54,29.87,10.0,NW,17.3,29.9,N/A,,Overcast,310,2013-05-11 17:49:00
12:53 PM,54.0,36.0,51,29.88,10.0,NW,24.2,34.5,N/A,,Overcast,310,2013-05-11 17:53:00
1:53 PM,55.0,33.1,43,29.90,10.0,NNW,15.0,23.0,N/A,,Mostly Cloudy,330,2013-05-11 18:53:00
2:53 PM,55.0,28.0,35,29.92,10.0,WNW,17.3,29.9,N/A,,Mostly Cloudy,300,2013-05-11 19:53:00
3:53 PM,55.0,26.1,33,29.93,10.0,NW,15.0,25.3,N/A,,Mostly Cloudy,310,2013-05-11 20:53:00
4:53 PM,51.1,30.0,44,29.96,10.0,WNW,13.8,31.1,0.00,Rain,Light Rain,300,2013-05-11 21:53:00
5:53 PM,54.0,25.0,33,29.96,10.0,NW,13.8,23.0,0.00,,Mostly Cloudy,310,2013-05-11 22:53:00
6:53 PM,51.1,28.0,41,29.98,10.0,WNW,8.1,-,0.00,,Partly Cloudy,300,2013-05-11 23:53:00
7:53 PM,50.0,26.1,39,29.99,10.0,NW,10.4,19.6,N/A,,Clear,320,2013-05-12 00:53:00
9:53 PM,46.9,27.0,46,30.02,10.0,WNW,9.2,-,N/A,,Clear,300,2013-05-12 02:53:00
11:53 PM,44.1,28.0,53,30.03,10.0,West,6.9,-,N/A,,Partly Cloudy,280,2013-05-12 04:53:00